Regional Weather Roundup
Issued by NWS Grand Forks, ND

Home | Current Version | Previous Version | Graphics & Text | Print | Product List | Glossary On
Versions: 1 2 3 4 5 6 7 8 9 10 11 12 13 14 15 16 17 18 19 20 21 22 23 24 25 26 27 28 29 30 31 32 33 34 35 36 37 38 39 40 41 42 43 44 45 46 47 48 49 50
851
ASUS43 KFGF 291210
RWRFGF
PRAIRIE TO PINES  WEATHER ROUNDUP
NATIONAL WEATHER SERVICE EASTERN NORTH DAKOTA/GRAND FORKS ND
700 AM CDT FRI APR 29 2016

 **SATELLITE DATA USED TO AUGMENT SKY COVER AT AUTOMATED STATIONS**
 *****  WEATHER ACROSS EASTERN NORTH DAKOTA  *****

CITY           SKY/WX    TMP DP  RH WIND       PRES   REMARKS
GRAND FORKS    MOCLDY    34  29  82 N6        30.21R
6HR MIN TEMP:  32; 6HR MAX TEMP:  35;

GRAND FRKS AFB PTCLDY    34  27  74 N9        30.21R
DEVILS LAKE    CLOUDY    35  26  69 N3        30.21R
6HR MIN TEMP:  34; 6HR MAX TEMP:  41;

FARGO          CLOUDY    36  32  85 E5        30.16R
WAHPETON ARPT  CLOUDY    36  32  87 SW5       30.18R
$$

 ***** WEATHER ACROSS CENTRAL AND WESTERN NORTH DAKOTA  *****

CITY           SKY/WX    TMP DP  RH WIND       PRES   REMARKS
BISMARCK       CLOUDY    35  31  85 NE7       30.18R
6HR MIN TEMP:  34; 6HR MAX TEMP:  44;

MINOT          PTCLDY    34  21  59 N5        30.20S
6HR MIN TEMP:  34; 6HR MAX TEMP:  45;

JAMESTOWN      CLOUDY    32  28  85 N5        30.16S
6HR MIN TEMP:  30; 6HR MAX TEMP:  40;

MINOT AFB      MOCLDY    29  23  78 NW5       30.20R WCI  24
GARRISON         N/A     31  23  72 N3        30.18S
WILLISTON      PTCLDY    34  24  67 NE5       30.18R
6HR MIN TEMP:  33; 6HR MAX TEMP:  43;

DICKINSON      CLOUDY    35  27  72 NE7       30.12S
6HR MIN TEMP:  34; 6HR MAX TEMP:  40;

HETTINGER      CLOUDY    38  33  82 E5        30.13R
6HR MIN TEMP:  36; 6HR MAX TEMP:  39;

$$

 *****  OTHER AIRPORT OBSERVATIONS IN OUR AREA  *****

CITY           SKY/WX    TMP DP  RH WIND       PRES   REMARKS
WALHALLA       FAIR      32  25  74 NW6       30.25S
GRAFTON AIRPOR FAIR      34  27  75 N7        30.25R
VALLEY CITY AR FAIR      37  27  65 N8        30.18S
CANDO          FAIR      30  23  74 N7        30.24R WCI  23
CAVALIER APRT  FAIR      34  25  69 N6        30.25R
GWINNER        FAIR      34  34 100 SW6       30.16S
SHEYENNE NWR     N/A     29  28  94 W3        29.95S
ROLLA          FAIR      32  19  59 N9        30.23S WCI  24
 ***** THE ABOVE OBSERVATIONS ARE NON NWS ARE NOT QUALITY
       CONTROLLED AND MAY MIS-REPORT RAIN FOR SNOW...
$$

  *****  WEATHER ACROSS NORTHERN MINNESOTA  *****

CITY           SKY/WX    TMP DP  RH WIND       PRES   REMARKS
FLAG ISLAND    CLEAR     39  32  75 NE7       30.24S
WARROAD        CLEAR     36  32  87 N7        30.24S
ROSEAU         CLEAR     34  28  80 CALM      30.23S
HALLOCK        CLEAR     37  28  70 NE7       30.23R
THF RVR FALLS  PTCLDY    39  27  60 NE9       30.21S
6HR MIN TEMP:  37; 6HR MAX TEMP:  43;

BAUDETTE       CLEAR     37  28  70 NE8       30.22R
6HR MIN TEMP:  32; 6HR MAX TEMP:  41;

WASKISH        CLOUDY    37  30  75 NE5       30.20S
CROOKSTON      CLOUDY    37  30  75 NE6       30.20S
STEPHEN NDAWN    N/A     34  28  80 NE3         N/A
GREENBUSH NDAW   N/A     34  30  86 NE3         N/A
$$
  *****  WEATHER ACROSS CENTRAL AND WEST MINNESOTA  *****

CITY           SKY/WX    TMP DP  RH WIND       PRES   REMARKS
FOSSTON        CLOUDY    36  28  75 NE3       30.19R
BEMIDJI        PTCLDY    34  29  83 N5        30.17R
PARK RAPIDS    CLOUDY    32  29  88 CALM      30.15S
6HR MIN TEMP:  31; 6HR MAX TEMP:  41;

ELBOW LAKE     FAIR      35  35 100 SW6       30.18S
WADENA         CLOUDY    30  30 100 CALM      30.16R FOG
DETROIT LAKES  CLOUDY    36  34  93 CALM      30.17R FOG
MOORHEAD       CLOUDY    37  34  87 SE3       30.17R
FERGUS FALLS   CLOUDY    36  36 100 S3        30.17R FOG
MORRIS MN      CLOUDY    37  37 100 SW5       30.18R
STAPLES        CLOUDY    30  30 100 CALM      30.17R
$$
  *****  WEATHER ELSEWHERE ACROSS MINNESOTA  *****

CITY           SKY/WX    TMP DP  RH WIND       PRES   REMARKS
DULUTH         PTCLDY    34  26  72 NE5       30.17R
6HR MIN TEMP:  29; 6HR MAX TEMP:  34;

INTRNTL FALLS  CLOUDY    36  30  79 NE6       30.21R
6HR MIN TEMP:  31; 6HR MAX TEMP:  40;

ELY            CLOUDY    36  30  80 CALM      30.19R
CLOQUET        CLOUDY    30  27  86 N3        30.17S
WHEATON        CLEAR     39  37  93 SW5       30.20S
BRAINERD       CLOUDY    31  29  92 CALM      30.17R
6HR MIN TEMP:  29; 6HR MAX TEMP:  40;

HIBBING        PTCLDY    28  26  92 CALM      30.17S
6HR MIN TEMP:  24; 6HR MAX TEMP:  28;

ALEXANDRIA     CLOUDY    35  34  96 W6        30.18R
6HR MIN TEMP:  32; 6HR MAX TEMP:  40;

SAINT CLOUD    CLOUDY    33  32  96 CALM      30.17R FOG
6HR MIN TEMP:  31; 6HR MAX TEMP:  39;

MINNEAPOLIS    CLOUDY    37  35  92 SW5       30.17R FOG
6HR MIN TEMP:  34; 6HR MAX TEMP:  38;

$$

  *****  WEATHER ACROSS SOUTH DAKOTA  *****

CITY           SKY/WX    TMP DP  RH WIND       PRES   REMARKS
SIOUX FALLS    CLOUDY    39  37  92 NE7       30.15R
6HR MIN TEMP:  39; 6HR MAX TEMP:  40;

BROOKINGS      PTCLDY    35  34  96 NE3       30.15R FOG
WATERTOWN      CLOUDY    35  33  92 CALM      30.17R FOG
6HR MIN TEMP:  33; 6HR MAX TEMP:  39;

HURON          CLOUDY    38  37  97 NE10      30.16F
6HR MIN TEMP:  34; 6HR MAX TEMP:  39;

SISSETON         N/A     38  36  92 W3        30.17R
ABERDEEN       FOG       32  30  92 S7        30.19R VSB 3/4
6HR MIN TEMP:  31; 6HR MAX TEMP:  40;

MITCHELL       CLOUDY    40  37  89 N3        30.17R
PIERRE         CLOUDY    38  35  89 S3        30.15R
6HR MIN TEMP:  37; 6HR MAX TEMP:  43;

MOBRIDGE       CLOUDY    41  38  89 CALM      30.12R
RAPID CITY     CLOUDY    36  34  92 CALM      30.11S
6HR MIN TEMP:  35; 6HR MAX TEMP:  37;

$$

  *****  SOME WEATHER IN NEARBY STATES *****

CITY           SKY/WX    TMP DP  RH WIND       PRES   REMARKS
GLASGOW MT     CLOUDY    38  34  85 NE9       30.11S
6HR MIN TEMP:  36; 6HR MAX TEMP:  42;

GREAT FALLS MT CLOUDY    35  33  92 CALM      29.98F
6HR MIN TEMP:  35; 6HR MAX TEMP:  38;

CHEYENNE WY    CLOUDY    31  30  96 SE13      29.99S WCI  21
6HR MIN TEMP:  31; 6HR MAX TEMP:  32; 6HR PCP:  0.01;

SCOTTSBLUFF NE CLOUDY    36  33  89 NE5       30.08F
6HR MIN TEMP:  34; 6HR MAX TEMP:  36;

OMAHA NE       CLOUDY    45  42  89 N8        30.09F
6HR MIN TEMP:  45; 6HR MAX TEMP:  46;

DES MOINES IA  CLOUDY    46  41  82 N8        30.09F
6HR MIN TEMP:  46; 6HR MAX TEMP:  48; 6HR PCP: TRACE;

DAVENPORT IA   CLOUDY    43  41  93 N9        30.09F FOG
6HR MIN TEMP:  43; 6HR MAX TEMP:  46; 6HR PCP:  0.01;

CHICAGO IL     CLOUDY    42  41  96 N12       30.08R FOG
6HR MIN TEMP:  42; 6HR MAX TEMP:  43; 6HR PCP:  0.01;

EAU CLAIRE WI  CLOUDY    40  38  93 CALM      30.14S
6HR MIN TEMP:  39; 6HR MAX TEMP:  40;

LA CROSSE WI   CLOUDY    41  37  86 N7        30.15R
6HR MIN TEMP:  40; 6HR MAX TEMP:  41;

$$

  *****  SOME NATIONAL WEATHER *****

CITY           SKY/WX    TMP DP  RH WIND       PRES   REMARKS
LA GUARDIA NY  CLOUDY    50  34  54 E10       30.10R
6HR MIN TEMP:  50; 6HR MAX TEMP:  50; 6HR PCP: TRACE;

RALEIGH NC     FOG       60  59  96 VRB5      30.00R VSB 1/2
6HR MIN TEMP:  60; 6HR MAX TEMP:  66; 6HR PCP: TRACE;

ATLANTA GA     MOSUNNY   67  58  72 NW5       30.03R
6HR MIN TEMP:  63; 6HR MAX TEMP:  69;

NEW ORLEANS LA MOCLDY    75  72  90 SE9       29.92R
6HR MIN TEMP:  73; 6HR MAX TEMP:  75;

OKLAHOMA CITY  CLOUDY    57  54  89 E14G21    29.78R
6HR MIN TEMP:  57; 6HR MAX TEMP:  61; 6HR PCP:  0.04;

ALBUQUERQUE NM PTCLDY    43  38  82 N9        29.84F
6HR MIN TEMP:  43; 6HR MAX TEMP:  59; 6HR PCP:  0.14;

SALT LAKE CITY MOCLDY    43  36  76 CALM      29.86R
6HR MIN TEMP:  41; 6HR MAX TEMP:  48;

LOS ANGELES CA MOCLDY    55  50  82 E6        29.99R
6HR MIN TEMP:  56; 6HR MAX TEMP:  59;

BOISE ID       CLOUDY   C1F1C2F2C3F3C4F4C5F5C6F6C7F7C8F8C9F9CaFaCbFbCcFcCd!



USA.gov is the U.S. government's official web portal to all federal, state and local government web resources and services.